TimeEDT,TemperatureF,Dew PointF,Humidity,Sea Level PressureIn,VisibilityMPH,Wind Direction,Wind SpeedMPH,Gust SpeedMPH,PrecipitationIn,Events,Conditions,WindDirDegrees,DateUTC
12:53 AM,69.1,60.1,73,30.09,10.0,East,9.2,-,N/A,,Scattered Clouds,100,2013-04-08 04:53:00
1:53 AM,68.0,60.1,76,30.09,10.0,ESE,9.2,-,N/A,,Mostly Cloudy,110,2013-04-08 05:53:00
2:53 AM,68.0,60.1,76,30.07,10.0,ESE,8.1,-,N/A,,Overcast,110,2013-04-08 06:53:00
3:53 AM,66.0,60.1,81,30.05,10.0,ESE,8.1,-,N/A,,Mostly Cloudy,110,2013-04-08 07:53:00
4:53 AM,64.0,59.0,84,30.05,10.0,East,5.8,-,N/A,,Clear,90,2013-04-08 08:53:00
5:53 AM,64.0,59.0,84,30.05,10.0,ESE,5.8,-,N/A,,Mostly Cloudy,110,2013-04-08 09:53:00
6:53 AM,64.0,59.0,84,30.07,10.0,East,6.9,-,N/A,,Mostly Cloudy,80,2013-04-08 10:53:00
7:53 AM,64.0,60.1,87,30.09,10.0,East,5.8,-,N/A,,Partly Cloudy,90,2013-04-08 11:53:00
8:53 AM,70.0,60.1,71,30.11,10.0,East,9.2,-,N/A,,Clear,100,2013-04-08 12:53:00
9:53 AM,75.0,60.1,60,30.12,10.0,ESE,10.4,-,N/A,,Clear,110,2013-04-08 13:53:00
10:53 AM,79.0,57.0,47,30.12,10.0,East,10.4,-,N/A,,Clear,90,2013-04-08 14:53:00
11:53 AM,81.0,54.0,39,30.12,10.0,SE,10.4,-,N/A,,Clear,140,2013-04-08 15:53:00
12:53 PM,82.9,53.1,36,30.11,10.0,East,9.2,16.1,N/A,,Partly Cloudy,80,2013-04-08 16:53:00
1:53 PM,82.9,53.1,36,30.08,10.0,ESE,9.2,-,N/A,,Clear,110,2013-04-08 17:53:00
2:53 PM,78.1,62.1,58,30.07,10.0,WSW,8.1,-,N/A,,Mostly Cloudy,240,2013-04-08 18:53:00
3:53 PM,77.0,64.0,64,30.06,10.0,West,11.5,-,N/A,,Partly Cloudy,260,2013-04-08 19:53:00
4:53 PM,78.1,62.1,58,30.04,10.0,West,8.1,-,N/A,,Partly Cloudy,280,2013-04-08 20:53:00
5:53 PM,75.9,62.1,62,30.05,10.0,West,10.4,-,N/A,,Scattered Clouds,260,2013-04-08 21:53:00
6:53 PM,75.0,63.0,66,30.05,10.0,West,8.1,-,N/A,,Clear,270,2013-04-08 22:53:00
7:53 PM,73.0,62.1,68,30.06,10.0,West,3.5,-,N/A,,Clear,270,2013-04-08 23:53:00
8:53 PM,71.1,62.1,73,30.08,10.0,NNW,3.5,-,N/A,,Clear,330,2013-04-09 00:53:00
9:53 PM,68.0,62.1,81,30.10,10.0,Calm,Calm,-,N/A,,Clear,0,2013-04-09 01:53:00
10:53 PM,66.0,62.1,87,30.11,10.0,East,3.5,-,N/A,,Clear,90,2013-04-09 02:53:00
11:53 PM,68.0,62.1,81,30.12,10.0,ESE,6.9,-,N/A,,Clear,110,2013-04-09 03:53:00